ニート彗星

C/2001 M10 ( NEAT )

English version
Home page
Total 6,336 html files since Dec. 4, 1995
Updated on December 3, 2002

---------------------------------------------------------------------

・ プロフィール

発見日 2001年6月20日
発見光度 19.5等
発見者 Near-Earth-Asteroid Tracking Team (Jet Propulsion Laboratory)

・ 軌道要素

Epoch 2001 June 20.0 TT = JDT 2452080.5
T 2001 June 21.3193 TT                                  MPCM
q   5.302844             (2000.0)            P               Q
n   0.0071430      Peri.    5.4908      +0.4807197      +0.7640306
a  26.702311       Node   293.9166      -0.8213711      +0.2205277
e   0.801409       Incl.   28.0815      -0.3070148      +0.6063207
P 138
From 88 observations 2001 June 20-2002 Aug. 30, mean residual 0".6.

・ 星図

・ 光度変化

        m1 = 7.5 + 5 logΔ + 10.0 log r

---------------------------------------------------------------------

軌道要素はMPCのEphemerides and Orbital Elementsに掲載されたものです。
星図は StellaNavigator Ver.2.0 for Windows (アストロアーツ 編著 / アスキー出版局刊) で作成したものです。
光度グラフはComet for Windowsで作成したものです。

---------------------------------------------------------------------

Copyright(C) 1995-2008 Seiichi Yoshida (comet@aerith.net). All rights reserved.